Theta_e
336 336 334 328 313 312 305 303 310 309 310 317 320 318 317 319 316 314 338 341 343 344 346 348 348 348 345 344 343 343 343 341 340 340 341 342 340 338 338 338 341 339 337 335 335 335 334 334 333
334 332 330 321 310 304 305 309 306 309 317 321 320 319 317 317 326 331 335 341 343 345 345 347 345 347 345 343 343 343 344 343 340 338 337 338 338 337 337 337 339 337 336 336 334 334 335 334 333
333 331 320 314 310 304 305 310 309 314 320 316 315 321 318 318 327 332 340 341 343 344 344 346 345 348 344 342 342 341 343 343 340 339 337 335 335 335 336 336 336 336 335 334 334 336 336 333 333
329 328 321 309 305 309 310 310 313 315 318 318 317 313 323 331 330 336 341 342 342 343 344 343 346 347 343 343 342 340 340 338 342 340 338 337 335 335 334 334 337 337 334 334 334 335 334 334 333
330 323 310 307 308 310 312 313 315 313 314 316 318 311 316 330 336 339 341 341 341 342 344 346 345 346 345 343 341 340 338 338 343 340 340 338 335 334 332 333 333 334 333 332 333 333 333 333 332
321 320 308 304 307 311 314 315 315 313 314 316 315 314 319 334 335 338 341 341 343 341 344 344 339 341 343 343 342 342 339 337 337 340 340 338 337 334 334 333 333 333 331 331 330 332 332 332 332
318 315 309 309 308 309 313 317 314 314 314 314 319 314 322 328 336 340 340 342 342 344 342 343 344 340 336 339 339 340 340 339 336 339 341 339 337 337 335 336 334 332 332 331 331 332 331 330 329
320 316 309 310 307 308 314 315 318 316 314 320 322 314 317 327 336 340 340 340 341 341 343 341 342 341 341 340 334 334 337 337 336 334 337 334 333 333 334 332 333 333 333 332 333 332 330 329 328
321 311 308 308 309 311 315 313 317 320 318 318 321 320 326 333 336 337 337 338 338 338 340 342 341 341 340 339 335 330 332 332 332 331 329 329 333 333 331 329 332 332 334 333 333 332 330 330 327
310 305 309 315 314 313 314 315 315 315 316 316 318 324 328 333 334 332 332 332 335 333 336 338 340 340 340 338 339 338 337 334 333 333 334 333 332 332 331 327 327 331 330 332 333 332 332 327 325
309 303 309 314 316 317 315 314 316 314 313 317 317 321 326 330 332 332 332 333 334 337 336 336 338 339 340 338 338 338 339 337 336 334 335 334 332 332 331 331 329 330 323 328 330 330 329 327 326
305 308 309 310 315 315 314 317 314 315 316 319 320 322 326 327 329 330 331 332 334 335 337 338 337 338 338 340 338 337 337 337 336 336 335 335 333 332 330 329 330 331 330 329 330 329 330 328 328
307 306 309 311 314 314 315 314 315 316 320 319 320 320 323 324 327 330 332 333 334 334 337 338 339 336 336 337 338 337 337 337 337 336 335 333 332 332 330 329 328 329 328 328 328 328 327 327 326
306 307 308 310 311 311 309 309 313 316 321 320 320 319 321 322 324 327 329 330 332 334 335 338 339 338 336 335 337 338 338 338 337 337 336 334 333 332 330 329 328 327 328 327 327 326 326 326 326
306 302 306 307 308 307 310 304 304 311 314 316 318 320 321 322 323 324 327 329 330 332 334 335 338 340 338 336 337 340 339 339 337 337 336 336 334 332 330 330 329 327 327 327 326 326 326 325 325
300 300 294 301 306 307 307 296 304 309 310 309 311 314 317 320 322 324 326 327 327 327 329 333 334 337 339 339 341 340 339 337 337 335 336 337 335 333 331 330 329 329 327 326 326 325 325 325 325
298 291 293 296 303 303 304 297 303 308 308 308 309 310 311 312 315 318 320 322 322 323 326 328 330 332 335 338 340 340 340 338 338 336 333 334 336 335 332 331 331 330 329 327 326 326 326 324 324
290 292 292 294 298 301 300 299 303 306 306 306 307 308 309 311 313 317 318 320 321 321 320 319 324 328 332 335 337 338 339 339 339 337 335 333 335 336 334 332 331 331 330 328 328 326 327 326 324
292 293 292 295 299 297 297 297 300 303 305 305 305 305 307 310 313 315 316 318 319 319 318 316 318 324 327 330 332 333 334 336 337 338 337 334 334 335 335 333 332 330 328 329 328 327 326 325 326
294 290 291 294 297 297 295 294 298 301 302 303 304 306 306 308 309 311 313 314 315 315 316 315 316 319 323 328 331 332 332 333 334 335 337 336 334 334 335 334 333 330 328 328 328 326 324 325 326
293 291 289 289 295 297 294 291 294 299 301 302 304 305 306 306 307 308 310 311 314 313 315 317 317 318 322 326 329 330 331 331 331 332 334 335 333 333 333 333 332 331 329 327 328 327 324 321 325
288 295 293 291 289 284 294 283 292 295 296 300 302 304 305 306 307 308 309 310 312 315 317 317 318 318 320 324 326 327 326 325 327 329 334 334 332 331 332 332 332 330 330 327 327 328 326 323 320
290 294 293 292 290 288 288 285 289 294 293 295 299 302 304 306 307 308 311 311 312 313 316 319 319 319 318 319 321 326 327 328 328 329 331 332 331 333 332 333 332 330 329 328 327 326 325 325 322
295 293 293 292 290 282 287 286 287 291 293 295 299 301 304 306 308 309 308 308 310 313 318 324 323 323 324 322 323 324 325 327 327 328 328 327 329 330 331 331 330 329 328 328 328 328 326 325 323
294 290 283 281 281 280 289 287 289 294 296 296 298 300 304 307 307 306 305 305 306 308 311 313 313 310 312 312 311 317 322 322 321 324 326 324 325 325 322 326 327 327 327 327 327 325 324 323 322
291 290 283 277 279 282 289 283 288 296 299 299 299 300 303 305 306 303 302 303 303 304 305 307 307 304 303 302 302 302 304 305 304 305 306 304 305 305 306 307 314 323 323 323 322 321 322 322 320
290 286 292 284 285 280 285 289 294 297 296 298 299 300 301 304 301 300 300 300 299 299 299 301 301 301 300 299 299 298 299 299 299 299 300 300 300 300 301 303 304 306 309 317 322 321 320 321 320
293 295 284 286 277 276 281 284 286 292 294 296 297 299 302 302 299 298 297 296 296 296 296 296 297 296 297 298 298 297 297 297 297 297 296 297 297 298 298 299 300 301 303 305 306 310 315 319 321
289 288 289 289 285 279 278 283 293 293 295 296 299 300 302 300 298 297 295 295 294 294 293 293 293 293 293 294 295 295 295 294 294 293 293 293 294 294 295 295 296 297 298 300 301 302 304 305 309
293 289 290 283 282 284 283 284 296 296 297 297 298 300 303 300 297 295 294 293 292 291 291 290 290 290 291 292 293 293 291 290 290 289 289 290 290 291 292 292 293 293 294 295 296 296 298 298 300
Wind_Speed
20 13 6 5 7 3 5 5 3 3 3 4 3 7 9 9 10 5 8 7 14 14 15 14 11 12 12 10 9 9 10 10 9 8 8 9 10 8 9 10 9 11 12 10 10 12 11 12 11
16 13 6 4 7 6 7 7 5 4 5 3 2 2 3 7 8 8 11 7 13 15 12 14 10 12 11 10 9 6 10 11 10 7 6 7 7 7 8 8 8 9 9 9 10 9 11 11 11
16 6 5 5 5 6 7 4 8 7 6 1 1 3 3 5 6 10 11 12 13 13 11 14 11 11 11 10 10 6 6 10 11 9 7 6 6 6 7 6 8 8 8 8 9 10 9 9 9
7 4 5 8 2 6 8 8 9 9 4 2 2 7 5 6 3 6 12 14 12 11 11 14 12 12 10 9 9 7 6 4 9 11 8 6 5 5 4 3 5 6 6 6 7 8 7 5 5
5 4 5 6 3 5 5 9 7 5 6 6 3 6 5 5 5 10 14 12 12 11 11 13 11 11 10 10 9 6 5 3 12 8 10 9 5 3 2 2 3 5 5 4 5 5 5 5 2
6 3 6 8 7 4 5 7 6 3 4 7 4 4 8 8 10 9 12 12 12 10 7 11 10 9 9 10 9 7 6 3 3 8 9 10 9 5 4 3 3 3 3 3 2 2 3 5 5
6 6 6 4 7 7 6 6 6 5 6 5 2 4 7 9 9 9 11 11 10 13 8 8 11 10 7 7 8 8 7 5 1 3 9 9 10 8 5 2 3 4 3 3 3 2 0 1 3
5 5 4 6 8 7 6 7 1 5 6 5 1 4 7 12 10 9 10 10 10 8 11 9 8 10 10 9 7 6 6 7 5 5 7 6 5 7 6 4 3 5 7 6 5 3 3 3 1
3 6 8 6 8 6 6 8 4 2 4 4 5 5 8 13 12 11 9 9 9 6 7 8 8 7 7 6 9 6 6 5 6 5 8 8 7 9 9 7 6 4 4 7 6 6 6 4 5
6 7 11 1 5 3 8 8 7 5 8 6 7 8 8 12 12 12 11 10 11 10 9 7 6 8 6 6 8 9 9 8 9 9 9 8 8 5 3 5 5 4 4 4 7 7 6 6 7
5 10 6 5 2 2 6 7 3 8 7 8 9 12 10 10 11 11 11 12 12 12 10 11 9 6 7 6 5 4 5 6 6 10 8 8 6 5 5 4 5 6 8 7 9 8 7 9 7
8 11 4 4 2 3 7 3 7 10 6 7 1 3 11 10 11 11 11 11 10 11 13 13 13 11 9 5 5 6 6 6 5 7 9 6 5 6 6 5 6 6 5 8 7 5 6 7 8
13 12 9 4 3 4 3 10 10 10 12 3 1 3 7 9 10 10 9 8 9 11 12 13 14 13 11 9 7 6 7 7 8 8 9 8 7 6 7 6 6 6 6 7 7 7 6 7 9
3 14 9 9 8 6 6 13 12 10 14 9 10 10 9 9 9 9 9 9 10 10 11 12 14 13 12 11 12 9 8 8 8 8 9 12 8 7 8 7 7 6 6 6 6 6 6 6 6
4 7 9 11 10 9 5 17 22 17 17 13 16 15 13 13 11 11 10 11 10 10 10 12 13 14 14 13 10 10 9 9 8 8 11 11 11 10 9 7 7 7 6 7 6 7 7 7 7
8 10 11 9 14 7 8 19 12 17 21 21 19 16 15 16 14 12 11 10 9 10 11 12 10 13 15 14 12 9 9 9 9 7 9 12 12 13 10 8 8 7 6 7 7 7 7 7 7
11 9 15 9 14 11 15 12 13 11 9 17 19 20 18 18 17 15 14 13 12 10 10 11 12 14 14 14 11 11 12 10 9 8 8 12 13 13 11 8 7 8 7 7 7 7 7 7 7
12 17 13 15 6 16 16 18 9 5 8 13 16 16 16 15 16 14 14 13 11 11 10 10 10 12 12 10 10 9 9 9 9 9 9 12 11 13 11 9 9 8 7 7 7 9 7 7 7
7 14 15 12 6 8 18 21 20 18 18 18 17 17 15 15 13 13 11 11 13 13 13 12 11 12 10 8 8 8 9 9 9 9 11 13 13 14 12 9 10 9 9 9 9 8 9 7 7
14 13 15 8 3 7 14 22 19 19 20 21 21 19 19 18 18 17 16 14 14 13 12 12 12 12 10 8 8 9 8 8 9 9 10 12 13 14 11 11 10 11 8 12 11 10 8 7 6
20 18 14 11 0 11 15 22 23 19 25 23 22 21 19 20 20 18 16 15 14 13 11 10 11 12 11 12 9 8 8 8 7 9 9 10 13 12 11 12 11 9 7 8 9 8 9 7 7
19 16 15 13 7 9 9 13 14 7 10 13 15 19 20 20 19 17 13 10 10 9 6 9 9 11 11 12 10 11 10 10 8 8 7 6 8 10 11 12 11 10 6 9 8 7 7 8 8
12 15 13 16 14 14 19 11 7 16 17 14 12 13 16 16 15 12 6 2 2 4 6 7 8 9 9 10 11 8 10 7 7 6 5 3 7 9 11 10 10 11 9 11 9 9 8 7 8
6 8 7 9 11 14 19 19 16 17 15 12 11 14 13 13 9 5 3 1 2 3 4 4 1 4 4 6 8 10 10 9 7 5 2 3 4 5 8 9 8 8 8 9 8 11 12 9 8
17 16 7 7 9 13 8 17 21 8 5 5 11 13 10 8 8 8 6 4 3 5 5 5 7 8 9 11 12 11 7 7 9 6 4 5 3 4 8 5 3 3 5 5 5 5 5 7 8
23 20 8 9 10 11 15 15 10 4 13 9 8 10 9 7 7 7 6 6 6 5 7 8 9 10 11 11 12 10 11 7 7 9 6 6 5 5 8 7 7 5 5 5 4 4 6 7 7
20 23 16 12 1 4 10 16 11 8 5 12 13 14 13 12 9 9 8 8 8 7 8 8 9 10 11 11 10 11 10 10 9 10 8 6 8 7 8 8 7 6 6 5 5 4 6 6 8
15 14 13 12 8 11 12 16 12 9 13 16 16 14 7 9 11 11 10 9 8 9 8 9 10 11 10 11 10 9 10 10 9 9 10 10 9 9 9 9 9 9 9 9 9 6 5 6 5
15 13 11 9 11 8 12 12 13 19 17 15 12 15 13 13 12 11 10 9 8 8 8 9 9 9 9 9 9 10 10 11 11 10 10 11 10 11 11 11 11 11 11 10 9 10 9 9 9
23 24 25 9 15 13 16 15 6 5 4 6 13 13 9 14 14 12 11 10 9 8 8 8 8 8 8 8 9 10 10 10 10 10 10 11 11 11 11 11 11 11 11 11 10 11 10 11 11
Wind_Direction
315 329 293 245 244 238 114 104 73 126 161 56 31 337 24 22 4 35 138 113 130 124 137 154 149 143 138 133 133 144 141 131 122 123 133 130 125 111 112 113 121 111 113 110 103 109 95 93 94
312 325 245 277 262 204 95 121 143 109 71 79 106 222 192 86 61 98 144 142 144 137 150 144 140 135 139 139 142 147 162 135 119 123 129 131 127 126 133 128 121 122 119 104 109 118 108 102 101
310 285 277 301 285 45 103 124 110 118 128 96 176 330 20 67 76 138 106 154 148 143 144 126 138 138 143 148 151 139 115 132 141 138 122 133 137 136 140 141 140 133 121 113 111 95 104 109 108
323 216 216 254 194 63 92 107 121 139 156 196 314 107 112 41 82 113 133 151 151 148 130 133 139 144 149 152 149 147 149 155 144 138 128 131 115 140 138 139 150 140 131 126 109 101 89 95 114
257 244 246 252 137 117 103 117 141 149 122 137 230 108 79 83 108 123 142 153 150 151 134 147 144 149 153 158 157 155 166 82 144 152 144 138 137 134 155 170 135 147 149 152 122 91 76 70 85
273 278 234 221 185 132 134 144 152 145 121 109 168 103 83 112 141 140 153 159 149 141 134 137 145 149 156 156 158 156 157 145 223 148 158 152 144 162 197 170 158 171 158 160 159 94 48 53 52
301 271 279 279 171 176 146 164 187 153 143 121 73 87 98 145 136 150 160 159 159 145 159 161 168 165 155 165 167 168 166 159 106 135 171 166 154 169 183 203 196 171 170 170 184 152 214 63 73
288 266 230 218 187 183 147 183 113 206 119 107 307 128 120 131 141 152 161 160 163 158 177 182 176 178 180 173 172 176 180 180 165 141 173 171 156 166 186 180 179 206 182 197 180 187 234 246 230
279 248 232 199 224 164 156 198 161 43 177 189 150 65 98 125 144 154 166 173 163 166 219 186 190 189 186 182 171 185 188 190 180 184 157 164 217 182 168 203 147 168 218 207 187 200 222 234 238
242 239 240 44 216 222 175 220 177 207 195 187 165 120 133 148 162 168 178 187 178 198 197 209 221 189 196 202 164 200 192 204 201 205 182 216 218 211 222 159 183 215 226 236 211 217 224 230 250
192 236 249 197 242 266 210 217 217 224 218 224 201 165 163 170 180 183 193 195 198 196 193 202 203 221 204 211 207 197 201 205 205 208 205 213 219 207 214 214 198 219 206 229 209 216 229 235 245
244 237 248 238 170 228 225 254 229 230 230 25 340 130 164 183 191 199 199 203 192 198 195 196 206 201 214 219 204 215 211 202 209 208 208 209 216 221 221 222 216 208 214 221 230 227 235 239 244
238 247 217 239 242 240 310 246 245 233 245 167 199 193 196 197 199 201 207 205 203 204 201 199 200 208 207 212 213 218 223 206 217 212 207 212 214 218 221 225 225 224 220 228 236 235 238 236 245
283 236 228 225 239 249 261 257 247 238 246 216 231 230 223 218 214 203 208 213 215 216 215 207 200 204 211 211 215 215 223 229 218 222 211 212 220 215 219 222 223 224 222 223 230 239 236 243 250
219 215 228 235 229 244 271 260 246 242 260 239 238 232 234 232 226 228 220 213 219 218 224 219 213 202 208 213 213 228 217 226 222 222 223 217 216 227 224 224 227 225 224 223 227 232 236 245 245
214 226 234 212 205 218 204 255 238 242 233 247 244 247 239 233 232 239 235 233 233 232 224 218 215 220 211 214 207 208 224 224 220 222 229 213 216 221 224 226 226 228 222 221 229 231 239 239 247
207 227 219 224 209 216 206 256 240 213 250 245 249 250 252 253 247 235 235 242 246 231 225 225 223 222 226 224 223 220 212 220 216 203 210 231 219 219 222 226 231 229 228 227 231 235 240 248 249
211 225 230 219 192 222 226 240 238 199 255 250 253 254 256 251 253 254 243 233 229 229 240 241 233 222 223 226 225 229 225 223 225 221 194 205 226 216 216 222 225 223 229 230 231 235 243 248 256
322 224 236 219 218 265 244 255 253 249 237 242 256 263 255 247 247 246 243 236 233 246 252 251 242 228 222 220 218 220 227 224 227 225 207 200 222 219 210 214 218 216 224 228 235 239 241 246 249
226 249 231 249 268 244 273 269 263 254 251 250 250 248 253 257 254 252 251 249 248 251 249 248 242 240 229 222 221 225 221 230 238 244 229 204 218 224 215 213 217 219 213 233 238 240 241 245 241
231 231 237 241 304 253 279 274 260 244 241 244 245 250 255 258 260 258 254 247 241 251 255 250 242 239 232 219 223 223 230 240 218 224 228 228 226 225 224 225 225 223 211 226 229 223 219 232 237
230 222 243 249 237 258 169 286 277 287 262 216 246 240 242 249 252 256 258 262 263 264 280 265 255 243 235 232 221 230 226 231 234 239 224 219 214 227 228 229 231 231 214 212 226 235 219 216 233
238 229 220 231 242 267 249 263 265 228 239 212 227 232 230 236 244 250 254 294 286 303 275 263 258 257 257 249 242 231 235 253 259 243 222 197 230 225 232 228 229 234 231 232 221 226 223 218 224
192 167 177 219 229 243 239 236 252 236 241 241 222 233 227 221 223 221 106 178 94 21 15 358 331 22 307 247 239 238 240 236 248 238 211 211 225 222 226 233 234 240 240 236 233 234 233 224 220
189 176 179 210 208 242 211 224 245 291 249 292 266 221 225 194 200 177 169 126 59 60 62 60 70 59 49 50 48 32 20 33 35 25 25 37 11 9 9 344 244 260 266 253 243 253 252 237 235
201 195 199 215 222 255 203 237 234 228 248 215 206 234 230 180 166 147 137 126 103 73 73 77 81 72 67 64 59 52 52 58 55 48 52 52 44 32 13 11 7 335 310 297 268 237 239 249 235
194 220 227 291 297 271 239 239 265 238 222 211 230 220 209 179 157 151 147 126 110 92 77 81 82 78 73 72 66 59 55 59 58 50 46 43 33 23 17 12 6 348 342 328 276 248 245 240 245
195 200 204 221 225 230 248 253 251 191 221 230 226 236 227 145 163 160 147 129 117 108 96 84 79 77 73 71 69 67 62 55 54 48 41 30 27 14 12 7 2 356 351 348 345 333 325 301 261
205 220 218 222 232 246 261 249 242 249 239 213 230 236 205 169 171 158 145 132 121 109 96 88 79 74 70 68 67 67 61 53 51 47 37 24 19 12 8 3 355 353 349 348 341 336 324 323 312
208 208 204 196 210 223 251 249 130 73 22 264 242 240 157 169 167 160 153 146 135 116 100 87 76 69 62 64 66 61 55 51 49 43 32 24 17 8 2 357 355 353 349 345 342 334 331 321 314